RYR3ZT LEZL-GMMX

Flight info

Callsign RYR3ZT
Flight time 1h 5m
Altitude 31000
Route CLANA N857 KORNO UN857 ABODA UR722 MABAP
Aircraft B738/M-SDE2E3FGHIRWXY/LB1

Departure

Time 2026-04-26 18:51
Airport Seville Airport (LEZL)

Arrival

Time 2026-04-26 19:56
Airport Marrakesh Menara Airport (GMMX)
Time Latitude Longitude Altitude Speed Heading
2026-04-26 18:26 37.42463 -5.89694 93 ft 0 kts 98°
2026-04-26 18:42 37.42463 -5.89692 93 ft 0 kts 102°
2026-04-26 18:42 37.42458 -5.89691 93 ft 1 kts 155°
2026-04-26 18:43 37.42453 -5.89697 94 ft 2 kts 220°
2026-04-26 18:43 37.42424 -5.89718 93 ft 6 kts 180°
2026-04-26 18:43 37.42392 -5.89684 93 ft 6 kts 135°
2026-04-26 18:43 37.42362 -5.89646 93 ft 6 kts 133°
2026-04-26 18:44 37.42334 -5.89609 94 ft 6 kts 135°
2026-04-26 18:44 37.42306 -5.89573 93 ft 6 kts 134°
2026-04-26 18:44 37.42277 -5.89537 93 ft 6 kts 136°
2026-04-26 18:44 37.42241 -5.89492 93 ft 10 kts 135°
2026-04-26 18:45 37.42182 -5.89430 98 ft 11 kts 173°
2026-04-26 18:45 37.42119 -5.89485 97 ft 11 kts 223°
2026-04-26 18:45 37.42063 -5.89553 96 ft 11 kts 224°
2026-04-26 18:45 37.42012 -5.89621 96 ft 11 kts 233°
2026-04-26 18:46 37.41984 -5.89707 96 ft 11 kts 256°
2026-04-26 18:46 37.41981 -5.89800 95 ft 10 kts 269°
2026-04-26 18:46 37.41979 -5.89889 95 ft 10 kts 271°
2026-04-26 18:46 37.41981 -5.89979 95 ft 11 kts 270°
2026-04-26 18:47 37.41980 -5.90095 94 ft 15 kts 269°
2026-04-26 18:47 37.41979 -5.90244 94 ft 18 kts 270°
2026-04-26 18:47 37.41980 -5.90400 93 ft 18 kts 269°
2026-04-26 18:47 37.41978 -5.90551 92 ft 17 kts 269°
2026-04-26 18:48 37.41978 -5.90696 92 ft 16 kts 270°
2026-04-26 18:48 37.41978 -5.90790 91 ft 16 kts 269°
2026-04-26 18:48 37.41977 -5.90927 90 ft 15 kts 269°
2026-04-26 18:48 37.41976 -5.91100 88 ft 14 kts 270°
2026-04-26 18:49 37.41976 -5.91184 88 ft 14 kts 269°
2026-04-26 18:49 37.41952 -5.91297 90 ft 13 kts 227°
2026-04-26 18:49 37.41869 -5.91291 91 ft 13 kts 135°
2026-04-26 18:49 37.41830 -5.91220 88 ft 9 kts 121°
2026-04-26 18:50 37.41795 -5.91162 89 ft 8 kts 123°
2026-04-26 18:50 37.41789 -5.91032 92 ft 41 kts 89°
2026-04-26 18:50 37.41792 -5.90293 97 ft 124 kts 90°
2026-04-26 18:50 37.41794 -5.88915 237 ft 182 kts 90°
2026-04-26 18:51 37.41825 -5.87241 1065 ft 193 kts 88°
2026-04-26 18:51 37.41887 -5.85607 2297 ft 179 kts 92°
2026-04-26 18:51 37.41808 -5.84117 3315 ft 169 kts 105°
2026-04-26 18:51 37.41143 -5.82819 3775 ft 196 kts 142°
2026-04-26 18:52 37.39792 -5.82217 4103 ft 220 kts 181°
2026-04-26 18:52 37.38330 -5.82905 4567 ft 238 kts 219°
2026-04-26 18:52 37.37068 -5.84450 4815 ft 269 kts 226°
2026-04-26 18:52 37.35761 -5.86200 5439 ft 280 kts 226°
2026-04-26 18:53 37.34426 -5.87981 6390 ft 280 kts 225°
2026-04-26 18:53 37.33072 -5.89757 6796 ft 279 kts 224°
2026-04-26 18:53 37.31689 -5.91540 6991 ft 289 kts 223°
2026-04-26 18:53 37.30285 -5.93328 6989 ft 290 kts 223°
2026-04-26 18:54 37.28855 -5.95135 6988 ft 288 kts 222°
2026-04-26 18:54 37.27440 -5.96913 6987 ft 286 kts 222°
2026-04-26 18:54 37.26045 -5.98659 6995 ft 287 kts 222°
2026-04-26 18:54 37.24627 -6.00428 7002 ft 287 kts 222°
2026-04-26 18:55 37.23205 -6.02200 6996 ft 287 kts 222°
2026-04-26 18:55 37.21797 -6.03951 7000 ft 288 kts 222°
2026-04-26 18:55 37.20371 -6.05724 7001 ft 288 kts 222°
2026-04-26 18:55 37.18943 -6.07499 6999 ft 288 kts 222°
2026-04-26 18:56 37.17516 -6.09270 6999 ft 289 kts 222°
2026-04-26 18:56 37.16096 -6.11033 6998 ft 289 kts 222°
2026-04-26 18:56 37.14660 -6.12813 7003 ft 290 kts 222°
2026-04-26 18:56 37.13218 -6.14599 7008 ft 290 kts 222°
2026-04-26 18:57 37.11794 -6.16361 7008 ft 291 kts 222°
2026-04-26 18:57 37.10784 -6.17522 7019 ft 291 kts 213°
2026-04-26 18:57 37.08334 -6.18827 7844 ft 287 kts 188°
2026-04-26 18:57 37.06382 -6.19324 8813 ft 286 kts 188°
2026-04-26 18:58 37.04406 -6.19802 9650 ft 290 kts 188°
2026-04-26 18:58 37.02432 -6.20330 10351 ft 299 kts 197°
2026-04-26 18:58 37.00549 -6.21676 10583 ft 326 kts 217°
2026-04-26 18:58 36.98746 -6.23574 10771 ft 350 kts 220°
2026-04-26 18:59 36.96870 -6.25639 11135 ft 365 kts 220°
2026-04-26 18:59 36.94942 -6.27759 11799 ft 370 kts 220°
2026-04-26 18:59 36.93015 -6.29851 12583 ft 370 kts 220°
2026-04-26 18:59 36.91045 -6.31958 13367 ft 372 kts 219°
2026-04-26 19:00 36.89053 -6.34063 14061 ft 375 kts 219°
2026-04-26 19:00 36.87064 -6.36144 14653 ft 379 kts 219°
2026-04-26 19:00 36.85025 -6.38267 15237 ft 383 kts 219°
2026-04-26 19:00 36.82957 -6.40412 15854 ft 387 kts 219°
2026-04-26 19:01 36.80869 -6.42573 16459 ft 391 kts 219°
2026-04-26 19:01 36.78763 -6.44749 17052 ft 394 kts 219°
2026-04-26 19:01 36.76638 -6.46942 17636 ft 398 kts 219°
2026-04-26 19:01 36.74514 -6.49132 18168 ft 403 kts 219°
2026-04-26 19:02 36.72346 -6.51366 18686 ft 406 kts 219°
2026-04-26 19:02 36.70157 -6.53621 19228 ft 408 kts 219°
2026-04-26 19:02 36.67954 -6.55888 19767 ft 411 kts 219°
2026-04-26 19:02 36.66486 -6.57397 20126 ft 413 kts 219°
2026-04-26 19:03 36.63529 -6.60437 20803 ft 416 kts 219°
2026-04-26 19:03 36.61284 -6.62741 21308 ft 419 kts 219°
2026-04-26 19:03 36.59011 -6.65073 21807 ft 422 kts 219°
2026-04-26 19:03 36.56753 -6.67387 22278 ft 425 kts 219°
2026-04-26 19:04 36.54455 -6.69741 22738 ft 428 kts 219°
2026-04-26 19:04 36.52143 -6.72107 23205 ft 431 kts 220°
2026-04-26 19:04 36.49819 -6.74484 23647 ft 433 kts 219°
2026-04-26 19:04 36.47503 -6.76851 24006 ft 436 kts 219°
2026-04-26 19:05 36.42795 -6.81656 24802 ft 439 kts 220°
2026-04-26 19:05 36.40427 -6.84069 25178 ft 441 kts 220°
2026-04-26 19:05 36.38047 -6.86493 25577 ft 443 kts 219°
2026-04-26 19:06 36.35679 -6.88903 25886 ft 446 kts 220°
2026-04-26 19:06 36.33270 -6.91353 26243 ft 447 kts 220°
2026-04-26 19:06 36.30856 -6.93805 26623 ft 448 kts 220°
2026-04-26 19:06 36.28450 -6.96248 26873 ft 452 kts 220°
2026-04-26 19:07 36.26000 -6.98733 27210 ft 454 kts 220°
2026-04-26 19:07 36.23541 -7.01224 27556 ft 456 kts 220°
2026-04-26 19:07 36.21077 -7.03719 27856 ft 458 kts 220°
2026-04-26 19:07 36.18650 -7.06174 28385 ft 454 kts 220°
2026-04-26 19:08 36.16198 -7.08652 28835 ft 453 kts 220°
2026-04-26 19:08 36.13753 -7.11121 29260 ft 452 kts 220°
2026-04-26 19:08 36.11319 -7.13579 29742 ft 451 kts 220°
2026-04-26 19:08 36.08887 -7.16031 30154 ft 450 kts 219°
2026-04-26 19:09 36.06459 -7.18477 30601 ft 447 kts 220°
2026-04-26 19:09 36.04084 -7.20868 30953 ft 446 kts 220°
2026-04-26 19:09 36.01662 -7.23304 30962 ft 450 kts 219°
2026-04-26 19:10 35.96791 -7.28199 30981 ft 448 kts 219°
2026-04-26 19:10 35.91991 -7.33013 30986 ft 443 kts 219°
2026-04-26 19:11 35.87228 -7.37783 30996 ft 442 kts 219°
2026-04-26 19:11 35.82452 -7.42559 30983 ft 442 kts 219°
2026-04-26 19:12 35.77688 -7.47315 30987 ft 443 kts 219°
2026-04-26 19:12 35.72878 -7.52109 30987 ft 444 kts 219°
2026-04-26 19:13 35.68071 -7.56891 30982 ft 446 kts 219°
2026-04-26 19:13 35.63231 -7.61701 30990 ft 447 kts 219°
2026-04-26 19:14 35.58370 -7.66523 30966 ft 447 kts 219°
2026-04-26 19:14 35.53545 -7.71302 30967 ft 447 kts 219°
2026-04-26 19:15 35.48700 -7.76094 30972 ft 445 kts 218°
2026-04-26 19:15 35.43833 -7.80739 30957 ft 444 kts 210°
2026-04-26 19:15 35.41021 -7.82265 30975 ft 442 kts 196°
2026-04-26 19:16 35.38001 -7.82995 30958 ft 442 kts 184°
2026-04-26 19:16 35.31891 -7.82630 30967 ft 442 kts 175°
2026-04-26 19:17 35.25735 -7.82024 30950 ft 443 kts 176°
2026-04-26 19:17 35.19570 -7.81470 30947 ft 443 kts 176°
2026-04-26 19:18 35.13441 -7.80953 30946 ft 443 kts 176°
2026-04-26 19:18 35.07297 -7.80443 30944 ft 443 kts 176°
2026-04-26 19:19 35.01145 -7.79933 30941 ft 443 kts 176°
2026-04-26 19:19 34.94989 -7.79422 30936 ft 442 kts 176°
2026-04-26 19:20 34.88874 -7.78914 30935 ft 441 kts 177°
2026-04-26 19:20 34.82779 -7.78410 30943 ft 441 kts 176°
2026-04-26 19:21 34.76639 -7.77902 30933 ft 441 kts 176°
2026-04-26 19:21 34.70533 -7.77420 30934 ft 441 kts 177°
2026-04-26 19:22 34.64386 -7.76994 30929 ft 442 kts 177°
2026-04-26 19:22 34.58263 -7.76572 30924 ft 443 kts 177°
2026-04-26 19:23 34.52086 -7.76141 30936 ft 443 kts 177°
2026-04-26 19:23 34.45953 -7.75710 30925 ft 443 kts 176°
2026-04-26 19:24 34.39802 -7.75277 30930 ft 442 kts 176°
2026-04-26 19:24 34.30640 -7.74635 30929 ft 440 kts 176°
2026-04-26 19:25 34.26545 -7.74348 30925 ft 439 kts 176°
2026-04-26 19:25 34.18439 -7.73782 30917 ft 439 kts 176°
2026-04-26 19:26 34.12328 -7.73252 30925 ft 439 kts 175°
2026-04-26 19:26 34.06251 -7.72669 30916 ft 439 kts 175°
2026-04-26 19:27 34.00132 -7.72092 30925 ft 440 kts 175°
2026-04-26 19:27 33.94058 -7.71531 30918 ft 440 kts 175°
2026-04-26 19:28 33.87939 -7.70971 30918 ft 441 kts 175°
2026-04-26 19:28 33.81806 -7.70410 30906 ft 441 kts 175°
2026-04-26 19:29 33.75708 -7.69852 30899 ft 441 kts 175°
2026-04-26 19:29 33.69583 -7.69293 30909 ft 441 kts 175°
2026-04-26 19:30 33.63454 -7.68734 30915 ft 441 kts 175°
2026-04-26 19:30 33.59408 -7.68365 30916 ft 441 kts 175°
2026-04-26 19:31 33.54315 -7.68155 30902 ft 441 kts 186°
2026-04-26 19:31 33.51294 -7.68822 30921 ft 441 kts 195°
2026-04-26 19:31 33.45710 -7.71777 30921 ft 442 kts 208°
2026-04-26 19:32 33.40338 -7.75436 30943 ft 442 kts 209°
2026-04-26 19:32 33.34982 -7.79058 30930 ft 442 kts 208°
2026-04-26 19:33 33.29628 -7.82624 30917 ft 441 kts 208°
2026-04-26 19:33 33.24291 -7.86154 30925 ft 440 kts 208°
2026-04-26 19:34 33.19818 -7.89108 30924 ft 440 kts 208°
2026-04-26 19:34 33.13565 -7.93234 30922 ft 440 kts 208°
2026-04-26 19:35 33.09135 -7.96154 30924 ft 440 kts 208°
2026-04-26 19:35 33.06441 -7.97928 30638 ft 443 kts 208°
2026-04-26 19:35 33.02892 -8.00264 30124 ft 433 kts 208°
2026-04-26 19:36 33.00304 -8.01967 30156 ft 416 kts 208°
2026-04-26 19:36 32.99450 -8.02529 30132 ft 415 kts 208°
2026-04-26 19:36 32.93389 -8.06165 29631 ft 418 kts 198°
2026-04-26 19:37 32.90607 -8.07055 29114 ft 422 kts 189°
2026-04-26 19:37 32.87665 -8.07533 28591 ft 426 kts 187°
2026-04-26 19:37 32.84715 -8.07968 28037 ft 425 kts 187°
2026-04-26 19:37 32.81825 -8.08403 27501 ft 423 kts 187°
2026-04-26 19:38 32.78914 -8.08859 26927 ft 419 kts 188°
2026-04-26 19:38 32.76031 -8.09324 26379 ft 415 kts 188°
2026-04-26 19:38 32.73173 -8.09790 25841 ft 413 kts 188°
2026-04-26 19:38 32.70326 -8.10255 25308 ft 412 kts 188°
2026-04-26 19:39 32.67514 -8.10716 24809 ft 409 kts 188°
2026-04-26 19:39 32.64705 -8.11177 24324 ft 405 kts 188°
2026-04-26 19:39 32.61915 -8.11634 23841 ft 402 kts 188°
2026-04-26 19:39 32.59140 -8.12089 23337 ft 400 kts 188°
2026-04-26 19:40 32.56424 -8.12533 22780 ft 397 kts 188°
2026-04-26 19:40 32.53692 -8.12980 22233 ft 394 kts 188°
2026-04-26 19:40 32.50969 -8.13425 21679 ft 391 kts 188°
2026-04-26 19:40 32.48313 -8.13859 21172 ft 389 kts 188°
2026-04-26 19:41 32.45641 -8.14295 20668 ft 386 kts 188°
2026-04-26 19:41 32.42987 -8.14727 20181 ft 382 kts 188°
2026-04-26 19:41 32.40345 -8.15158 19684 ft 380 kts 188°
2026-04-26 19:41 32.38611 -8.15441 19375 ft 378 kts 188°
2026-04-26 19:42 32.35175 -8.16001 18756 ft 374 kts 188°
2026-04-26 19:42 32.32597 -8.16420 18297 ft 371 kts 188°
2026-04-26 19:42 32.30060 -8.16833 17786 ft 369 kts 188°
2026-04-26 19:42 32.27508 -8.17248 17261 ft 366 kts 188°
2026-04-26 19:43 32.25018 -8.17653 16755 ft 364 kts 188°
2026-04-26 19:43 32.22518 -8.18059 16250 ft 361 kts 188°
2026-04-26 19:43 32.20015 -8.18465 15749 ft 359 kts 188°
2026-04-26 19:43 32.17564 -8.18863 15264 ft 356 kts 188°
2026-04-26 19:44 32.15101 -8.19262 14775 ft 354 kts 188°
2026-04-26 19:44 32.12692 -8.19367 14288 ft 353 kts 173°
2026-04-26 19:44 32.10343 -8.18563 13837 ft 352 kts 157°
2026-04-26 19:44 32.08153 -8.17290 13336 ft 350 kts 154°
2026-04-26 19:45 32.05998 -8.15967 12865 ft 346 kts 153°
2026-04-26 19:45 32.03876 -8.14655 12452 ft 341 kts 153°
2026-04-26 19:45 32.01780 -8.13369 12053 ft 337 kts 153°
2026-04-26 19:45 31.99721 -8.12116 11654 ft 333 kts 153°
2026-04-26 19:46 31.97660 -8.10872 11297 ft 329 kts 153°
2026-04-26 19:46 31.95652 -8.09666 10957 ft 325 kts 153°
2026-04-26 19:46 31.93639 -8.08459 10619 ft 320 kts 153°
2026-04-26 19:46 31.91663 -8.07277 10280 ft 317 kts 153°
2026-04-26 19:47 31.89731 -8.06122 9959 ft 313 kts 154°
2026-04-26 19:47 31.88364 -8.05492 9709 ft 312 kts 166°
2026-04-26 19:47 31.85520 -8.05437 9242 ft 309 kts 192°
2026-04-26 19:47 31.83490 -8.06260 8899 ft 307 kts 201°
2026-04-26 19:48 31.81538 -8.07249 8547 ft 303 kts 202°
2026-04-26 19:48 31.79629 -8.08241 8169 ft 295 kts 202°
2026-04-26 19:48 31.77790 -8.09194 7774 ft 290 kts 202°
2026-04-26 19:48 31.75945 -8.10141 7382 ft 286 kts 202°
2026-04-26 19:49 31.74118 -8.11067 6926 ft 284 kts 200°
2026-04-26 19:49 31.72234 -8.11755 6475 ft 282 kts 191°
2026-04-26 19:49 31.70374 -8.12362 6010 ft 282 kts 206°
2026-04-26 19:49 31.68864 -8.13797 5536 ft 281 kts 233°
2026-04-26 19:50 31.67818 -8.15732 5103 ft 279 kts 239°
2026-04-26 19:50 31.66811 -8.17678 4652 ft 278 kts 239°
2026-04-26 19:50 31.65806 -8.19620 4178 ft 277 kts 239°
2026-04-26 19:50 31.64819 -8.21520 3730 ft 275 kts 239°
2026-04-26 19:51 31.63587 -8.23149 3595 ft 259 kts 210°
2026-04-26 19:51 31.61903 -8.23690 3251 ft 251 kts 172°
2026-04-26 19:51 31.60384 -8.22965 3270 ft 224 kts 145°
2026-04-26 19:51 31.59194 -8.21946 3199 ft 203 kts 136°
2026-04-26 19:52 31.58458 -8.20638 3192 ft 190 kts 99°
2026-04-26 19:52 31.58593 -8.19141 3202 ft 183 kts 65°
2026-04-26 19:52 31.59310 -8.17969 3209 ft 172 kts 45°
2026-04-26 19:52 31.60158 -8.16996 3214 ft 169 kts 43°
2026-04-26 19:53 31.60992 -8.16066 3190 ft 163 kts 43°
2026-04-26 19:53 31.61587 -8.14972 3025 ft 161 kts 84°
2026-04-26 19:53 31.61508 -8.13660 2877 ft 163 kts 90°
2026-04-26 19:53 31.61483 -8.12356 2666 ft 158 kts 94°
2026-04-26 19:54 31.61354 -8.11113 2474 ft 150 kts 95°
2026-04-26 19:54 31.61244 -8.09919 2295 ft 147 kts 95°
2026-04-26 19:54 31.61143 -8.08737 2086 ft 144 kts 93°
2026-04-26 19:54 31.61069 -8.07576 1906 ft 141 kts 95°
2026-04-26 19:55 31.60953 -8.06426 1777 ft 145 kts 96°
2026-04-26 19:55 31.60831 -8.05245 1608 ft 144 kts 95°
2026-04-26 19:55 31.60737 -8.04112 1540 ft 130 kts 95°
2026-04-26 19:55 31.60652 -8.03201 1542 ft 90 kts 96°
2026-04-26 19:56 31.60612 -8.02744 1543 ft 9 kts 96°
2026-04-26 19:56 31.60609 -8.02716 1548 ft 7 kts 96°
2026-04-26 19:56 31.60599 -8.02653 1539 ft 9 kts 120°
2026-04-26 19:56 31.60539 -8.02637 1548 ft 10 kts 186°
2026-04-26 19:57 31.60509 -8.02641 1541 ft 2 kts 185°
2026-04-26 19:57 31.60499 -8.02642 1542 ft 2 kts 185°
2026-04-26 19:57 31.60477 -8.02645 1546 ft 5 kts 186°
2026-04-26 19:57 31.60439 -8.02638 1548 ft 6 kts 142°
2026-04-26 19:58 31.60427 -8.02593 1541 ft 6 kts 96°
2026-04-26 19:58 31.60422 -8.02546 1548 ft 6 kts 96°
2026-04-26 19:58 31.60418 -8.02499 1548 ft 6 kts 96°
2026-04-26 19:58 31.60414 -8.02452 1544 ft 6 kts 96°
2026-04-26 19:59 31.60408 -8.02387 1548 ft 10 kts 96°
2026-04-26 19:59 31.60401 -8.02302 1541 ft 11 kts 96°
2026-04-26 19:59 31.60392 -8.02217 1548 ft 10 kts 111°
2026-04-26 19:59 31.60329 -8.02198 1548 ft 10 kts 186°
2026-04-26 20:00 31.60260 -8.02205 1543 ft 10 kts 185°
2026-04-26 20:00 31.60196 -8.02211 1544 ft 7 kts 195°
2026-04-26 20:00 31.60183 -8.02244 1544 ft 5 kts 267°
2026-04-26 20:00 31.60183 -8.02282 1545 ft 5 kts 272°
2026-04-26 20:01 31.60183 -8.02294 1548 ft 0 kts 272°